This demonstration page uses our WeatherBlox Daily Observations layout. Learn more.

Left ArrowRight Arrow

31.84235, -102.49876

Hourly Observations for May 18, 2017

Temp ( °F °C ) Dew Point ( °F °C ) Humidity (%) Winds ( mph kmh ) Pressure ( in mb ) Visibility ( mi km ) Precip ( " mm )
12:53 am 00:53 Clear 76 24.4 33 0.6 21 21 S 14 22 29.60 1002 10 16 0.00 0.00
1:53 am 01:53 Clear 73 22.8 35 1.7 25 25 S 9 15 29.60 1002 10 16 0.00 0.00
2:53 am 02:53 Clear 72 22.2 40 4.4 31 31 S 9 15 29.58 1002 10 16 0.00 0.00
3:53 am 03:53 Clear 72 22.2 46 7.8 40 40 S 13 20 29.58 1002 10 16 0.00 0.00
4:53 am 04:53 Clear 70 21.1 50 10 49 49 S 9 15 29.58 1002 10 16 0.00 0.00
5:53 am 05:53 Clear 70 21.1 56 13.3 61 61 S 10 17 29.59 1002 10 16 0.00 0.00
6:53 am 06:53 Sunny 71 21.7 63 17.2 76 76 S 16 26 29.59 1002 10 16 0.00 0.00
7:53 am 07:53 Sunny 72 22.2 65 18.3 79 79 SSW 18 30 29.61 1003 7 11 0.00 0.00
8:53 am 08:53 Sunny 75 23.9 64 17.8 69 69 SSW 21 33 29.63 1003 8 13 0.00 0.00
9:53 am 09:53 Sunny 81 27.2 49 9.4 33 33 SW 17 28 29.64 1004 10 16 0.00 0.00
10:53 am 10:53 Sunny 84 28.9 29 -1.7 13 13 W 21 33 29.63 1004 10 16 0.00 0.00
11:53 am 11:53 Sunny 87 30.6 21 -6.1 9 9 WSW 17 28 29.63 1003 10 16 0.00 0.00
12:53 pm 12:53 Sunny 89 31.7 19 -7.2 7 7 WSW 17 28 29.62 1003 10 16 0.00 0.00
1:53 pm 13:53 Sunny 88 31.1 19 -7.2 8 8 WSW 18 30 29.61 1003 10 16 0.00 0.00
2:53 pm 14:53 Sunny 90 32.2 19 -7.2 7 7 W 17 28 29.59 1002 10 16 0.00 0.00
3:53 pm 15:53 Sunny 92 33.3 17 -8.3 6 6 WSW 23 37 29.57 1002 10 16 0.00 0.00
4:53 pm 16:53 Sunny 92 33.3 15 -9.4 6 6 WSW 18 30 29.55 1001 10 16 0.00 0.00
5:53 pm 17:53 Sunny 92 33.3 15 -9.4 6 6 W 17 28 29.54 1000 10 16 0.00 0.00
6:53 pm 18:53 Sunny 91 32.8 15 -9.4 6 6 W 15 24 29.53 1000 10 16 0.00 0.00
7:53 pm 19:53 Sunny 89 31.7 17 -8.3 7 7 W 9 15 29.53 1000 10 16 0.00 0.00
8:53 pm 20:53 Clear 84 28.9 19 -7.2 9 9 W 5 7 29.54 1000 10 16 0.00 0.00
9:53 pm 21:53 Clear 78 25.6 21 -6.1 12 12 NNW 6 9 29.56 1001 10 16 0.00 0.00
10:53 pm 22:53 Clear 72 22.2 24 -4.4 17 17 N 8 13 29.58 1002 10 16 0.00 0.00
11:53 pm 23:53 Clear 67 19.4 26 -3.3 21 21 ESE 3 6 29.61 1003 10 16 0.00 0.00

Powered by AerisWeather